Home   Weather   Albury   Past weeks
Flag for Australia

Past Weather in Albury, New South Wales, Australia — Yesterday and Last 2 Weeks

Now
63 °F

Clear.


Feels Like: 63 °F
Forecast: 81 / 59 °F
Wind: 15 mph from West

Location: Albury Airport

Current Time: Feb 19, 2019 at 6:34:20 am

Latest Report: Feb 19, 2019 at 6:00 am


Visibility: N/A

Pressure: 29.71 "Hg

Humidity: 68%

Dew Point: 52 °F

Location of AlburyLocation

Past Weather in Albury — Graph

°F

Albury Temperature Yesterday

Maximum temperature yesterday: 91 °F (at 1:00 pm)
Minimum temperature yesterday: 64 °F (at 4:00 am)
Average temperature yesterday: 77 °F

High & Low Weather Summary for the Past Weeks

 TemperatureHumidityPressure
High97 °F (Feb 4, 5:00 pm)94% (Feb 4, 6:00 am)30.21 "Hg (Feb 4, 6:00 am)
Low48 °F (Feb 10, 7:00 am)12% (Feb 17, 6:00 pm)29.42 "Hg (Feb 12, 1:32 pm)
Average73 °F52%29.81 "Hg
* Reported Feb 4 5:00 am — Feb 19 5:00 am, Albury. Weather by CustomWeather, © 2019

Note: Actual official high and low records may vary slightly from our data, if they occured in-between our weather recording intervals... More about our weather records

Advertising

Albury Weather History for the Previous 24 Hours

Scroll right to see more
 ConditionsComfort  
Time TempWeatherWind HumidityBarometerVisibility
5:00 am
Tue, Feb 19
66 °FClear.10 mph60%29.68 "HgN/A
4:00 am70 °FClear.12 mph57%29.68 "HgN/A
3:00 am73 °FClear.10 mph47%29.68 "HgN/A
2:00 am75 °FClear.10 mph44%29.65 "HgN/A
1:00 am77 °FClear.12 mph32%29.65 "HgN/A
12:00 am79 °FClear.7 mph30%29.65 "HgN/A
11:00 pm
Mon, Feb 18
77 °FClear.5 mph42%29.65 "HgN/A
10:00 pm77 °FClear.No wind44%29.65 "HgN/A
9:00 pm79 °FClear.3 mph34%29.65 "HgN/A
8:00 pm84 °FSunny.6 mph29%29.62 "HgN/A
7:00 pm90 °FSunny.8 mph24%29.62 "HgN/A
6:00 pm90 °FSunny.7 mph24%29.62 "HgN/A
5:00 pm90 °FSunny.12 mph24%29.62 "HgN/A
4:00 pm90 °FSunny.8 mph27%29.62 "HgN/A
3:00 pm84 °FScattered clouds.6 mph37%29.65 "HgN/A
2:00 pm86 °FScattered clouds.10 mph29%29.65 "HgN/A
1:00 pm91 °FSunny.9 mph20%29.68 "HgN/A
12:00 pm84 °FScattered clouds.6 mph33%29.71 "HgN/A
11:00 am79 °FScattered clouds.8 mph42%29.74 "HgN/A
10:00 am75 °FScattered clouds.6 mph44%29.77 "HgN/A
9:00 am72 °FSunny.2 mph50%29.77 "HgN/A
8:00 am68 °FSunny.2 mph49%29.77 "HgN/A
7:00 am66 °FSunny.1 mph56%29.77 "HgN/A
6:00 am66 °FClear.No wind56%29.74 "HgN/A
Weather by CustomWeather, © 2019

See weather overview